Adak, AK

7:14 AM HDT on September 24, 2017 (GMT -0900)
Adak

Weather History for PADK - February, 2014

Change the Weather History Date:

Saturday, February 15, 2014

  Actual Average Record
Temperature  
Mean Temperature 32 °F -  
Max Temperature 35 °F 36 °F 45 °F (1952)
Min Temperature 30 °F 28 °F 19 °F (1953)
Degree Days  
Heating Degree Days 32    
Moisture  
Dew Point 23 °F    
Average Humidity 65    
Maximum Humidity 86    
Minimum Humidity 47    
Precipitation  
Precipitation 0.02 in - - ()
Sea Level Pressure  
Sea Level Pressure 29.47 in    
Wind  
Wind Speed 22 mph (WNW)    
Max Wind Speed 38 mph    
Max Gust Speed 47 mph    
Visibility 8 miles    
Events      
Averages and records for this station are not official NWS values.
T = Trace of Precipitation, MM = Missing Value Source: NWS Daily Summary

Daily Weather History Graph

Daily Weather History Graph

Search for Another Location

Airport or City:

Trip Planner

Search our weather history database for the weather conditions in past years. The results will help you decide how hot, cold, wet, or windy it might be!

Date:

Astronomy

Feb. 15, 2014 Rise Set
Actual Time 9:00 AM HST 7:01 PM HST
Civil Twilight 8:25 AM HST 7:36 PM HST
Nautical Twilight 7:46 AM HST 8:15 PM HST
Astronomical Twilight 7:07 AM HST 8:54 PM HST
Moon 8:29 PM HST (2/15) 8:55 AM HST (2/15)
Length of Visible Light 11h 10m
Length of Day
10h 00m
Full, 99% of the Moon is Illuminated
Feb 15
Full
Feb 22
Last Quarter
Feb 28
New
Mar 8
First Quarter
Mar 16
Full

Hourly Weather History & Observations

Time (HST) Temp. Windchill Dew Point Humidity Pressure Visibility Wind Dir Wind Speed Gust Speed Precip Events Conditions
12:16 AM 33.8 °F 20.5 °F 23.0 °F 65% 29.47 in 10.0 mi WNW 27.6 mph 38.0 mph N/A   Scattered Clouds
12:36 AM 33.8 °F 22.2 °F 23.0 °F 65% 29.48 in 10.0 mi West 20.7 mph 35.7 mph N/A   Partly Cloudy
12:56 AM 33.8 °F 19.9 °F 23.0 °F 65% 29.47 in 10.0 mi West 31.1 mph 36.8 mph N/A   Mostly Cloudy
1:16 AM 33.8 °F 21.3 °F 23.0 °F 65% 29.46 in 10.0 mi West 24.2 mph 31.1 mph N/A   Mostly Cloudy
1:36 AM 33.8 °F 21.6 °F 24.8 °F 70% 29.46 in 7.0 mi West 23.0 mph 34.5 mph N/A   Mostly Cloudy
1:56 AM 33.8 °F 20.1 °F 21.2 °F 60% 29.46 in 10.0 mi West 29.9 mph 36.8 mph N/A   Scattered Clouds
2:16 AM 32.0 °F 18.6 °F 24.8 °F 75% 29.45 in 1.2 mi WNW 25.3 mph 36.8 mph 0.01 in   Mostly Cloudy
2:56 AM 32.0 °F 18.6 °F 21.2 °F 64% 29.45 in 10.0 mi WNW 25.3 mph 36.8 mph 0.01 in   Mostly Cloudy
3:16 AM 33.8 °F 21.3 °F 23.0 °F 65% 29.44 in 10.0 mi West 24.2 mph 34.5 mph N/A   Mostly Cloudy
3:36 AM 33.8 °F 20.8 °F 21.2 °F 60% 29.44 in 10.0 mi West 26.5 mph 36.8 mph N/A   Overcast
4:16 AM 33.8 °F 21.0 °F 21.2 °F 60% 29.45 in 10.0 mi WNW 25.3 mph 33.4 mph N/A   Overcast
4:36 AM 32.0 °F 18.9 °F 23.0 °F 69% 29.45 in 2.5 mi WNW 24.2 mph 40.3 mph N/A   Mostly Cloudy
4:56 AM 32.0 °F 17.2 °F 21.2 °F 64% 29.44 in 10.0 mi West 32.2 mph 35.7 mph N/A   Mostly Cloudy
5:16 AM 33.8 °F 20.5 °F 21.2 °F 60% 29.44 in 10.0 mi WNW 27.6 mph 36.8 mph N/A   Mostly Cloudy
5:56 AM 32.0 °F 16.2 °F 24.8 °F 75% 29.44 in 1.5 mi WNW 38.0 mph 47.2 mph N/A   Overcast
6:16 AM 32.0 °F 19.5 °F 23.0 °F 69% 29.45 in 6.0 mi WNW 21.9 mph 33.4 mph N/A   Overcast
6:36 AM 32.0 °F 19.8 °F 21.2 °F 64% 29.45 in 10.0 mi WNW 20.7 mph 34.5 mph N/A   Overcast
7:16 AM 33.8 °F 22.2 °F 21.2 °F 60% 29.45 in 8.0 mi WNW 20.7 mph 38.0 mph N/A   Mostly Cloudy
7:36 AM 33.8 °F 22.2 °F 21.2 °F 60% 29.45 in 10.0 mi WNW 20.7 mph 35.7 mph N/A   Mostly Cloudy
7:56 AM 32.0 °F 18.1 °F 26.6 °F 80% 29.44 in 3.0 mi West 27.6 mph 33.4 mph N/A   Mostly Cloudy
8:36 AM 33.8 °F 20.8 °F 21.2 °F 60% 29.45 in 10.0 mi WNW 26.5 mph 38.0 mph N/A   Mostly Cloudy
8:56 AM 33.8 °F 20.8 °F 21.2 °F 60% 29.46 in 8.0 mi WNW 26.5 mph 33.4 mph N/A   Mostly Cloudy
9:16 AM 33.8 °F 23.2 °F 19.4 °F 56% 29.47 in 10.0 mi WNW 17.3 mph 27.6 mph N/A   Mostly Cloudy
9:56 AM 33.8 °F 21.0 °F 21.2 °F 60% 29.48 in 10.0 mi West 25.3 mph 33.4 mph N/A   Mostly Cloudy
10:16 AM 32.0 °F 19.5 °F 23.0 °F 69% 29.49 in 1.5 mi WNW 21.9 mph 35.7 mph N/A   Overcast
10:36 AM 32.0 °F 19.5 °F 21.2 °F 64% 29.48 in 10.0 mi WNW 21.9 mph 28.8 mph N/A   Mostly Cloudy
10:56 AM 33.8 °F 22.5 °F 21.2 °F 60% 29.48 in 10.0 mi WNW 19.6 mph 28.8 mph N/A   Mostly Cloudy
11:36 AM 33.8 °F 21.9 °F 21.2 °F 60% 29.49 in 10.0 mi West 21.9 mph 31.1 mph N/A   Scattered Clouds
11:56 AM 33.8 °F 23.2 °F 21.2 °F 60% 29.48 in 10.0 mi West 17.3 mph 21.9 mph N/A   Partly Cloudy
12:16 PM 35.6 °F 24.8 °F 24.8 °F 65% 29.48 in 10.0 mi West 19.6 mph 23.0 mph N/A   Mostly Cloudy
12:36 PM 33.8 °F 24.3 °F 24.8 °F 70% 29.49 in 10.0 mi NW 13.8 mph 23.0 mph N/A   Mostly Cloudy
12:56 PM 33.8 °F 23.2 °F 23.0 °F 65% 29.48 in 4.0 mi WNW 17.3 mph 23.0 mph N/A   Mostly Cloudy
1:16 PM 35.6 °F 24.2 °F 24.8 °F 65% 29.48 in 10.0 mi West 21.9 mph 26.5 mph N/A   Mostly Cloudy
1:36 PM 35.6 °F 25.5 °F 21.2 °F 56% 29.48 in 10.0 mi West 17.3 mph - N/A   Mostly Cloudy
1:56 PM 35.6 °F 26.2 °F 24.8 °F 65% 29.48 in 10.0 mi West 15.0 mph 24.2 mph N/A   Partly Cloudy
2:16 PM 35.6 °F 25.5 °F 24.8 °F 65% 29.48 in 10.0 mi WNW 17.3 mph 25.3 mph N/A   Partly Cloudy
2:36 PM 35.6 °F 24.2 °F 28.4 °F 75% 29.47 in 10.0 mi WSW 21.9 mph 26.5 mph N/A   Mostly Cloudy
2:56 PM 35.6 °F 25.5 °F 24.8 °F 65% 29.47 in 10.0 mi West 17.3 mph 23.0 mph N/A   Overcast
3:16 PM 33.8 °F 23.5 °F 23.0 °F 65% 29.48 in 1.0 mi West 16.1 mph - 0.01 in   Overcast
3:36 PM 33.8 °F 23.5 °F 24.8 °F 70% 29.47 in 10.0 mi West 16.1 mph 20.7 mph 0.02 in   Mostly Cloudy
3:56 PM 35.6 °F 26.2 °F 24.8 °F 65% 29.47 in 10.0 mi WNW 15.0 mph - 0.02 in   Scattered Clouds
4:16 PM 35.6 °F 28.6 °F 24.8 °F 65% 29.47 in 10.0 mi NNW 9.2 mph 19.6 mph N/A   Mostly Cloudy
4:36 PM 35.6 °F 27.1 °F 21.2 °F 56% 29.47 in 10.0 mi West 12.7 mph 16.1 mph N/A   Overcast
4:56 PM 33.8 °F 25.3 °F 26.6 °F 75% 29.48 in 2.0 mi West 11.5 mph - N/A   Overcast
5:16 PM 33.8 °F 25.8 °F 23.0 °F 65% 29.47 in 10.0 mi West 10.4 mph - N/A   Partly Cloudy
5:36 PM 33.8 °F 26.4 °F 24.8 °F 70% 29.47 in 10.0 mi West 9.2 mph - N/A   Clear
5:56 PM 33.8 °F 25.3 °F 24.8 °F 70% 29.48 in 1.5 mi WNW 11.5 mph - N/A   Mostly Cloudy
6:16 PM 32.0 °F 24.2 °F 21.2 °F 64% 29.47 in 10.0 mi West 9.2 mph - N/A   Scattered Clouds
6:36 PM 33.8 °F 25.3 °F 21.2 °F 60% 29.47 in 10.0 mi WNW 11.5 mph 16.1 mph N/A   Clear
6:56 PM 33.8 °F 23.9 °F 21.2 °F 60% 29.47 in 10.0 mi WNW 15.0 mph 18.4 mph N/A   Clear
7:16 PM 33.8 °F 25.8 °F 19.4 °F 56% 29.47 in 10.0 mi NW 10.4 mph 21.9 mph N/A   Clear
7:36 PM 33.8 °F 24.8 °F 21.2 °F 60% 29.47 in 10.0 mi NW 12.7 mph - N/A   Partly Cloudy
7:56 PM 33.8 °F 24.8 °F 21.2 °F 60% 29.47 in 10.0 mi WNW 12.7 mph - N/A   Partly Cloudy
8:16 PM 33.8 °F 25.8 °F 24.8 °F 70% 29.48 in 10.0 mi NNW 10.4 mph - N/A   Mostly Cloudy
8:36 PM 33.8 °F 27.7 °F 24.8 °F 70% 29.48 in 5.0 mi NW 6.9 mph 19.6 mph 0.01 in   Mostly Cloudy
8:56 PM 33.8 °F 26.4 °F 21.2 °F 60% 29.48 in 10.0 mi NW 9.2 mph - 0.01 in   Mostly Cloudy
9:16 PM 33.8 °F 22.8 °F 21.2 °F 60% 29.49 in 10.0 mi North 18.4 mph 25.3 mph N/A   Mostly Cloudy
9:36 PM 32.0 °F 22.1 °F 24.8 °F 75% 29.50 in 10.0 mi North 13.8 mph - N/A   Mostly Cloudy
9:56 PM 32.0 °F 21.2 °F 24.8 °F 75% 29.50 in 6.0 mi NNW 16.1 mph - N/A   Mostly Cloudy
10:16 PM 30.2 °F 19.3 °F 26.6 °F 86% 29.51 in 3.0 mi NNE 15.0 mph - N/A   Overcast
10:36 PM 30.2 °F 18.1 °F 26.6 °F 86% 29.52 in 2.0 mi NNE 18.4 mph 23.0 mph N/A   Overcast
10:56 PM 30.2 °F 16.8 °F 24.8 °F 80% 29.53 in 5.0 mi North 23.0 mph 31.1 mph N/A   Mostly Cloudy
11:16 PM 30.2 °F 17.8 °F 23.0 °F 75% 29.54 in 10.0 mi NNE 19.6 mph 29.9 mph N/A   Overcast
11:36 PM 30.2 °F 17.8 °F 23.0 °F 75% 29.56 in 10.0 mi North 19.6 mph - N/A   Overcast
11:56 PM 30.2 °F 17.1 °F 21.2 °F 69% 29.56 in 10.0 mi North 21.9 mph - N/A   Overcast